Location: Newark
(43.6583°N, 1.6617°E)
Time: 03:47:39
(UTC+00:00)

Transit 4A - Pass Details

Date: 28 August 2019
Orbit: 866 x 978 km, 66.8° (Epoch: 14 October)

Event Time Altitude Azimuth Distance (km) Brightness Sun altitude
Rises 16:59:27 0° 218° (SW) 3,659 11.6 16.6°
Reaches altitude 10° 17:02:01 10° 221° (SW) 2,719 11.1 16.1°
Maximum altitude 17:08:22 68° 304° (NW) 1,050 8.8 15.0°
Drops below altitude 10° 17:14:44 10° 27° (NNE) 2,719 10.1 13.8°
Sets 17:17:19 0° 30° (NNE) 3,659 10.7 13.4°
